Tracking 32941 objects as of 15-Jan-2026
HD Live streaming from Space Station
objects crossing your sky now

FLOCK 4BE 29

Track FLOCK 4BE 29 now!
10-day predictions
FLOCK 4BE 29 is classified as:


NORAD ID: 60509
Int'l Code: 2024-149AT
Perigee: 457.3 km
Apogee: 462.7 km
Inclination: 97.4 °
Period: 93.6 minutes
Semi major axis: 6831 km
RCS: Unknown
Launch date: August 16, 2024
Source: United States (US)
Launch site: AIR FORCE WESTERN TEST RANGE (AFWTR)
Your satellite tracking list
Your tracking list is empty




NASA's NSSDC Master Catalog

Two Line Element Set (TLE):
1 60509U 24149AT  26015.21891088  .00012342  00000-0  33525-3 0  9994
2 60509  97.3944  99.3967 0003992 115.5762 244.5896 15.37712901 78853
Source of the keplerian elements: AFSPC